TimeEDT,TemperatureF,Dew PointF,Humidity,Sea Level PressureIn,VisibilityMPH,Wind Direction,Wind SpeedMPH,Gust SpeedMPH,PrecipitationIn,Events,Conditions,WindDirDegrees,DateUTC
12:54 AM,54.0,46.9,77,30.11,10.0,SW,3.5,-,N/A,,Scattered Clouds,230,2012-10-23 04:54:00
1:54 AM,53.1,48.0,83,30.11,10.0,Calm,Calm,-,N/A,,Scattered Clouds,0,2012-10-23 05:54:00
2:54 AM,53.1,48.0,83,30.11,10.0,Calm,Calm,-,N/A,,Scattered Clouds,0,2012-10-23 06:54:00
3:54 AM,52.0,46.0,80,30.10,10.0,Calm,Calm,-,N/A,,Mostly Cloudy,0,2012-10-23 07:54:00
4:54 AM,51.1,46.9,86,30.09,10.0,SW,3.5,-,N/A,,Mostly Cloudy,230,2012-10-23 08:54:00
5:54 AM,51.1,46.9,86,30.11,10.0,West,4.6,-,N/A,,Mostly Cloudy,260,2012-10-23 09:54:00
6:54 AM,52.0,48.0,86,30.11,10.0,Calm,Calm,-,N/A,,Mostly Cloudy,0,2012-10-23 10:54:00
7:54 AM,53.1,48.9,86,30.12,10.0,WSW,3.5,-,N/A,,Mostly Cloudy,240,2012-10-23 11:54:00
8:54 AM,55.9,51.1,84,30.13,10.0,SSW,3.5,-,N/A,,Overcast,210,2012-10-23 12:54:00
9:54 AM,59.0,52.0,78,30.14,10.0,WNW,5.8,-,N/A,,Mostly Cloudy,300,2012-10-23 13:54:00
10:33 AM,60.8,50.0,68,30.15,8.0,Variable,3.5,-,N/A,,Overcast,0,2012-10-23 14:33:00
10:54 AM,61.0,48.9,64,30.15,8.0,WSW,3.5,-,N/A,,Overcast,240,2012-10-23 14:54:00
11:54 AM,62.1,51.1,67,30.14,8.0,Calm,Calm,-,N/A,,Overcast,0,2012-10-23 15:54:00
12:51 PM,64.4,48.2,56,30.10,10.0,Calm,Calm,-,0.00,,Overcast,0,2012-10-23 16:51:00
12:54 PM,64.9,50.0,58,30.10,10.0,Calm,Calm,-,0.00,,Overcast,0,2012-10-23 16:54:00
1:54 PM,66.9,50.0,54,30.09,10.0,Calm,Calm,-,N/A,,Overcast,0,2012-10-23 17:54:00
2:54 PM,69.1,52.0,54,30.06,10.0,SE,3.5,-,N/A,,Mostly Cloudy,130,2012-10-23 18:54:00
3:54 PM,70.0,53.1,55,30.06,10.0,Calm,Calm,-,N/A,,Overcast,0,2012-10-23 19:54:00
4:54 PM,71.1,55.0,57,30.07,10.0,Calm,Calm,-,N/A,,Mostly Cloudy,0,2012-10-23 20:54:00
5:54 PM,70.0,53.1,55,30.07,10.0,Calm,Calm,-,N/A,,Overcast,0,2012-10-23 21:54:00
6:54 PM,66.0,54.0,65,30.06,10.0,East,3.5,-,N/A,,Overcast,90,2012-10-23 22:54:00
7:54 PM,63.0,55.0,75,30.07,10.0,SE,4.6,-,N/A,,Mostly Cloudy,140,2012-10-23 23:54:00
8:54 PM,63.0,55.9,78,30.08,10.0,SSW,3.5,-,N/A,,Mostly Cloudy,210,2012-10-24 00:54:00
9:54 PM,62.1,55.9,80,30.08,10.0,Calm,Calm,-,0.00,,Mostly Cloudy,0,2012-10-24 01:54:00
10:54 PM,62.1,57.9,86,30.07,10.0,Calm,Calm,-,0.00,,Mostly Cloudy,0,2012-10-24 02:54:00
11:54 PM,61.0,55.9,83,30.08,10.0,Calm,Calm,-,N/A,,Mostly Cloudy,0,2012-10-24 03:54:00